Location: Mason Neck State Park
(38.6428°N, 77.1981°W)
Time: 16:06:08
(UTC-04:00)

Daily predictions for brighter satellites

Satellite Brightness Start Highest point End
(mag) Time Altitude Azimuth Time Altitude Azimuth Time Altitude Azimuth
Cosmos 1825 Rocket 3.9 19:30:30 10° N 19:34:43 43° E 19:38:56 10° SSE
H-2A R/B 3.6 19:34:25 10° SE 19:37:39 29° ENE 19:40:55 10° N
Cosmos 1184 Rocket 2.8 19:35:46 10° N 19:39:09 76° E 19:42:31 10° SSE
GPS 2-04 Rocket1 4.0 19:39:52 10° W 19:43:50 37° SSW 19:47:48 10° SE
Meteor 1-15 Rocket 4.3 19:38:43 10° S 19:44:37 85° E 19:50:30 10° N
Cosmos 1898 Rocket 3.6 19:41:32 10° N 19:46:37 53° ENE 19:51:39 10° SE
Cosmos 1814 Rocket 4.2 19:45:03 10° S 19:50:00 47° ESE 19:54:55 10° NNE
USA 81 4.5 19:45:04 10° N 19:50:02 40° E 19:54:59 10° SSE
Milstar 3 Cent rocket 3.9 19:53:03 10° S 19:54:38 11° SSE 19:56:08 10° SE
Tiangong 2 2.6 19:52:09 10° W 19:55:04 32° SSW 19:57:59 10° SE
Cosmos 1707 3.1 19:53:43 10° N 19:57:29 43° E 20:01:13 10° SSE
Cosmos 1709 Rocket 4.1 19:53:46 10° S 20:00:06 88° W 20:06:32 10° N
Cosmos 2150 Rocket 4.3 19:56:44 10° N 20:01:53 47° ENE 20:07:04 10° SE
SL-08 ROCKET BODY 4.4 19:56:16 10° SSE 20:01:57 55° E 20:07:43 10° NNE
Cosmos 990 Rocket 4.3 19:57:46 10° N 20:02:45 46° ENE 20:07:40 10° SE
Cosmos 2369 Rocket 2.6 19:57:10 10° NNW 20:02:47 67° WSW 20:08:19 10° S
FENGYUN 3A 3.9 19:58:49 10° S 20:04:09 72° WSW 20:09:31 10° NNW
Cosmos 1340 Rocket 2.7 20:00:46 10° N 20:04:50 72° E 20:08:54 10° SSE
Cosmos 1758 Rocket 3.5 20:01:19 10° N 20:05:49 74° E 20:10:17 10° SSE
ALOS 3.0 20:04:00 10° S 20:08:34 56° W 20:13:10 10° NNW
Envisat 4.0 20:05:29 15° ESE 20:08:38 27° ENE 20:12:53 10° N
Cosmos 389 Rocket 2.8 20:05:25 10° SSW 20:08:55 68° W 20:12:25 10° N
Cosmos 1356 Rocket 4.2 20:06:44 10° NNE 20:10:35 31° ENE 20:13:05 18° SE
Cosmos 1656 Rocket 4.3 20:05:27 10° N 20:10:39 36° ENE 20:14:09 18° ESE
BREEZE M DEB (TANK) 4.0 20:03:27 10° NW 20:10:58 42° NNE 20:12:59 20° ENE
Lacrosse 5 2.7 20:06:32 10° NW 20:11:27 50° SW 20:16:19 10° SSE
Cosmos 1726 Rocket 3.5 20:07:56 10° S 20:12:19 87° W 20:16:42 10° N
Cosmos 1271 Rocket 3.8 20:11:29 10° SSW 20:15:06 46° WNW 20:18:46 10° N
FREGAT/IRIS 3.5 20:14:28 10° S 20:17:25 51° W 20:20:24 10° NNW
Resurs 01 Rocket 2.1 20:16:42 17° SE 20:19:39 40° ENE 20:23:48 10° N
Cosmos 2184 Rocket 4.0 20:17:45 10° S 20:23:52 58° E 20:30:05 10° NNE
USA 186 3.5 20:25:28 15° NNE 20:25:28 15° NNE 20:26:08 10° NNE
Cosmos 2298 Rocket 4.0 20:20:16 10° NNW 20:25:38 88° ENE 20:30:58 10° SSE
CZ-2D R/B 3.1 20:26:31 19° SSE 20:29:07 64° ENE 20:32:54 10° N
FALCON 9 R/B 2.0 20:27:17 10° WSW 20:30:19 51° SSE 20:33:19 26° ESE
GP-B 3.7 20:27:17 10° NNE 20:31:19 33° E 20:31:49 32° E
SJ-6B 3.4 20:28:28 10° S 20:32:28 59° W 20:36:26 10° NNW
Cosmos 841 Rocket 3.3 20:28:13 10° SSW 20:33:20 78° ESE 20:38:30 10° NNE
OE (NEXTSAT) 4.4 20:30:47 10° WNW 20:34:19 76° SSW 20:35:15 46° SE
Cosmos 1937 Rocket 3.6 20:29:00 10° NNW 20:34:20 79° WSW 20:39:35 10° SSE
Cosmos 1378 3.5 20:32:15 10° NNW 20:36:00 64° W 20:39:43 10° S
Meteor 1-24 Rocket 3.8 20:33:30 10° N 20:39:28 65° E 20:44:00 17° SSE
USA 229 DEB 4.0 20:33:10 10° NW 20:40:21 73° WSW 20:46:57 13° SSE
USA 229 4.0 20:33:16 10° NW 20:40:26 74° WSW 20:46:59 13° SSE
NOSS 3-1 (A) 4.3 20:37:28 10° NNW 20:44:55 53° NE 20:48:54 31° ESE
Cosmos 2058 Rocket 4.0 20:43:10 10° SSW 20:47:21 48° W 20:51:36 10° N
Cosmos 1812 Rocket 3.9 20:48:56 45° ENE 20:48:56 45° ENE 20:52:49 10° NNE
Cosmos 1544 3.3 20:49:31 52° NE 20:49:31 52° NE 20:52:26 10° NNE
Cosmos 2327 Rocket 4.3 20:43:04 10° S 20:49:12 84° E 20:55:20 10° N
Cosmos 2084 3.6 20:47:14 10° SW 20:51:18 64° NW 20:54:36 14° NNE
Cosmos 2228 4.1 20:48:01 10° SSW 20:52:12 46° W 20:56:25 10° N
NOSS 3-1 (C) 4.0 20:48:12 10° NNW 20:55:55 77° NE 21:00:23 31° SE
Cosmos 1763 Rocket 4.4 20:51:30 10° SW 20:56:24 47° WNW 21:01:23 10° N
Meteor 2-8 Rocket 4.3 20:53:52 10° N 21:00:02 75° E 21:03:15 30° SSE
MOS 1-B Rocket 3.9 20:55:10 19° SSE 21:00:05 84° ENE 21:05:54 10° NNW
ATLAS CENTAUR R/B 3.0 20:51:51 10° NW 21:04:06 82° SW 21:05:47 46° SSE
Cosmos 540 Rocket 3.2 21:00:32 10° S 21:05:37 75° ESE 21:10:44 10° NNE
GEOS 3 Rocket 3.6 21:01:22 10° NE 21:06:48 88° NW 21:12:10 10° SW
Meteor 2-19 Rocket 4.3 21:04:32 10° S 21:10:34 82° E 21:16:39 10° N
Cosmos 1943 Rocket 4.0 21:06:43 10° NW 21:11:26 29° WSW 21:16:09 10° SSW
Spot 2 Rocket 3.8 21:12:52 29° S 21:15:22 62° WSW 21:20:22 10° NNW
Cosmos 1939 Rocket 3.8 21:19:29 42° NNW 21:19:29 42° NNW 21:22:08 10° NNW
BREEZE-M DEB (TANK) 3.2 21:09:50 10° WSW 21:20:18 75° NNW 21:21:11 58° NE
Cosmos 2154 Rocket 4.0 21:22:13 10° S 21:28:25 81° W 21:34:42 10° N
COSMOS 2406 3.6 21:24:26 10° SW 21:30:04 62° WNW 21:35:46 10° NNE
Cosmos 2341 Rocket 3.8 21:34:12 80° ESE 21:34:17 80° E 21:40:31 10° N
H-2A R/B 4.2 21:42:16 14° NNE 21:42:16 14° NNE 21:43:13 10° NNE
Cosmos 1125 Rocket 3.7 21:34:02 10° NNW 21:38:49 70° NW 21:38:49 70° NW
Envisat 4.5 21:45:42 26° SW 21:47:30 33° W 21:52:04 10° NNW
ERS-1 Rocket 4.5 21:51:22 29° N 21:51:22 29° N 21:53:49 10° N
Resurs 01 Rocket 4.2 21:54:17 13° WSW 21:56:17 17° W 21:59:08 10° NW
ATLAS 2AS CENTAUR R/B 3.7 22:19:34 10° NNW 22:25:45 44° NNE 22:25:45 44° NNE
